QPF
0.00 0.00 0.00 0.00 0.00 0.00 0.01 0.01 0.02 0.05 0.08 0.12 0.17 0.20 0.20 0.19 0.19 0.21 0.22 0.23 0.22 0.22 0.22 0.21 0.20 0.20 0.18 0.14 0.11 0.09 0.06 0.04 0.02 0.02 0.02 0.02 0.01 0.01 0.00 0.00 0.00 0.00 0.00
0.00 0.00 0.00 0.00 0.00 0.00 0.02 0.02 0.03 0.06 0.07 0.10 0.13 0.17 0.20 0.21 0.19 0.23 0.28 0.27 0.24 0.24 0.23 0.20 0.17 0.16 0.14 0.11 0.09 0.06 0.04 0.02 0.01 0.01 0.01 0.01 0.00 0.00 0.00 0.00 0.00 0.00 0.00
0.00 0.00 0.00 0.00 0.00 0.00 0.01 0.02 0.02 0.04 0.07 0.10 0.13 0.16 0.18 0.22 0.26 0.27 0.29 0.35 0.37 0.32 0.29 0.24 0.18 0.14 0.10 0.07 0.04 0.03 0.02 0.01 0.01 0.00 0.00 0.00 0.00 0.00 0.00 0.00 0.00 0.00 0.00
0.00 0.00 0.01 0.00 0.00 0.01 0.02 0.02 0.03 0.05 0.09 0.13 0.13 0.19 0.24 0.23 0.28 0.35 0.35 0.38 0.36 0.31 0.27 0.21 0.15 0.10 0.07 0.04 0.02 0.01 0.01 0.00 0.00 0.00 0.00 0.00 0.00 0.00 0.00 0.00 0.00 0.00 0.00
0.00 0.00 0.00 0.01 0.01 0.01 0.02 0.07 0.06 0.05 0.11 0.19 0.16 0.15 0.20 0.25 0.28 0.30 0.31 0.30 0.27 0.23 0.19 0.13 0.09 0.06 0.04 0.02 0.01 0.01 0.00 0.00 0.00 0.00 0.00 0.00 0.00 0.00 0.00 0.00 0.00 0.00 0.00
0.00 0.00 0.00 0.01 0.01 0.02 0.01 0.02 0.02 0.04 0.09 0.14 0.12 0.10 0.13 0.18 0.22 0.21 0.19 0.17 0.14 0.12 0.11 0.09 0.05 0.03 0.02 0.01 0.00 0.00 0.00 0.00 0.00 0.00 0.00 0.00 0.00 0.00 0.00 0.00 0.00 0.00 0.00
0.01 0.01 0.01 0.01 0.02 0.02 0.01 0.01 0.02 0.05 0.08 0.11 0.11 0.10 0.11 0.12 0.13 0.14 0.15 0.13 0.10 0.07 0.05 0.04 0.03 0.02 0.01 0.00 0.00 0.00 0.00 0.00 0.00 0.00 0.00 0.00 0.00 0.00 0.00 0.00 0.00 0.00 0.00
0.02 0.02 0.02 0.02 0.02 0.02 0.01 0.01 0.02 0.04 0.08 0.12 0.09 0.09 0.10 0.09 0.08 0.08 0.09 0.07 0.06 0.04 0.02 0.01 0.01 0.01 0.00 0.00 0.00 0.00 0.00 0.00 0.00 0.00 0.00 0.00 0.00 0.00 0.00 0.00 0.00 0.00 0.00
0.03 0.04 0.04 0.02 0.02 0.01 0.01 0.01 0.01 0.02 0.04 0.08 0.08 0.07 0.08 0.09 0.07 0.05 0.05 0.05 0.04 0.03 0.01 0.01 0.00 0.00 0.00 0.00 0.00 0.00 0.00 0.00 0.00 0.00 0.00 0.00 0.00 0.00 0.00 0.00 0.00 0.00 0.00
0.06 0.06 0.05 0.03 0.03 0.03 0.02 0.02 0.01 0.01 0.02 0.03 0.04 0.05 0.05 0.06 0.05 0.03 0.02 0.02 0.02 0.01 0.00 0.00 0.00 0.00 0.00 0.00 0.00 0.00 0.00 0.00 0.00 0.00 0.00 0.00 0.00 0.00 0.00 0.00 0.00 0.00 0.00
0.10 0.09 0.07 0.05 0.04 0.04 0.03 0.03 0.02 0.02 0.01 0.01 0.02 0.02 0.03 0.04 0.03 0.02 0.01 0.01 0.02 0.01 0.00 0.00 0.00 0.00 0.00 0.00 0.00 0.00 0.00 0.00 0.00 0.00 0.00 0.00 0.00 0.00 0.00 0.00 0.00 0.00 0.00
0.15 0.15 0.12 0.09 0.06 0.04 0.03 0.03 0.03 0.02 0.01 0.01 0.01 0.00 0.01 0.01 0.01 0.01 0.01 0.01 0.01 0.01 0.00 0.00 0.00 0.00 0.00 0.00 0.00 0.00 0.00 0.00 0.00 0.00 0.00 0.00 0.00 0.00 0.00 0.00 0.00 0.00 0.00
0.20 0.19 0.16 0.12 0.10 0.08 0.05 0.04 0.03 0.01 0.01 0.01 0.01 0.00 0.00 0.00 0.00 0.01 0.01 0.00 0.00 0.00 0.00 0.00 0.00 0.00 0.00 0.00 0.00 0.00 0.00 0.00 0.00 0.00 0.00 0.00 0.00 0.00 0.00 0.00 0.00 0.00 0.00
0.25 0.22 0.19 0.16 0.12 0.10 0.08 0.06 0.03 0.01 0.01 0.01 0.01 0.00 0.00 0.00 0.00 0.00 0.00 0.00 0.00 0.00 0.00 0.00 0.00 0.00 0.00 0.00 0.00 0.00 0.00 0.00 0.00 0.00 0.00 0.00 0.00 0.00 0.00 0.00 0.00 0.00 0.00
0.35 0.28 0.23 0.18 0.14 0.11 0.10 0.09 0.05 0.02 0.01 0.01 0.01 0.00 0.00 0.00 0.00 0.00 0.00 0.00 0.00 0.00 0.00 0.00 0.00 0.00 0.00 0.00 0.00 0.00 0.00 0.00 0.00 0.00 0.00 0.00 0.00 0.00 0.00 0.00 0.00 0.00 0.00
0.44 0.38 0.29 0.22 0.16 0.12 0.09 0.07 0.05 0.03 0.01 0.00 0.00 0.00 0.00 0.00 0.00 0.00 0.00 0.00 0.00 0.00 0.00 0.00 0.00 0.00 0.00 0.00 0.00 0.00 0.00 0.00 0.00 0.00 0.00 0.00 0.00 0.00 0.00 0.00 0.00 0.00 0.00
0.53 0.48 0.38 0.28 0.19 0.13 0.09 0.05 0.03 0.02 0.02 0.01 0.00 0.00 0.00 0.00 0.00 0.00 0.00 0.00 0.00 0.00 0.00 0.00 0.00 0.00 0.00 0.00 0.00 0.00 0.00 0.00 0.00 0.00 0.00 0.00 0.00 0.00 0.00 0.00 0.00 0.00 0.00
0.53 0.49 0.41 0.30 0.24 0.17 0.10 0.05 0.03 0.02 0.02 0.01 0.00 0.00 0.00 0.00 0.00 0.00 0.00 0.00 0.00 0.00 0.00 0.00 0.00 0.00 0.00 0.00 0.00 0.00 0.00 0.00 0.00 0.00 0.00 0.00 0.00 0.00 0.00 0.00 0.00 0.00 0.00
0.55 0.50 0.43 0.32 0.25 0.21 0.14 0.07 0.04 0.02 0.02 0.01 0.00 0.00 0.00 0.00 0.00 0.00 0.00 0.00 0.00 0.00 0.00 0.00 0.00 0.00 0.00 0.00 0.00 0.00 0.00 0.00 0.00 0.00 0.00 0.00 0.00 0.00 0.00 0.00 0.00 0.00 0.00
0.49 0.50 0.45 0.34 0.25 0.21 0.17 0.09 0.04 0.02 0.01 0.01 0.00 0.00 0.00 0.00 0.00 0.00 0.00 0.00 0.00 0.00 0.00 0.00 0.00 0.00 0.00 0.00 0.00 0.00 0.00 0.00 0.00 0.00 0.00 0.00 0.00 0.00 0.00 0.00 0.00 0.00 0.00
0.41 0.45 0.43 0.34 0.24 0.18 0.14 0.10 0.04 0.02 0.01 0.00 0.00 0.00 0.00 0.00 0.00 0.00 0.00 0.00 0.00 0.00 0.00 0.00 0.00 0.00 0.00 0.00 0.00 0.00 0.00 0.00 0.00 0.00 0.00 0.00 0.00 0.00 0.00 0.00 0.00 0.00 0.00
0.33 0.39 0.39 0.32 0.24 0.18 0.13 0.09 0.05 0.03 0.01 0.00 0.00 0.00 0.00 0.00 0.00 0.00 0.00 0.00 0.00 0.00 0.00 0.00 0.00 0.00 0.00 0.00 0.00 0.00 0.00 0.00 0.00 0.00 0.00 0.00 0.00 0.00 0.00 0.00 0.00 0.00 0.00
0.29 0.33 0.34 0.28 0.20 0.17 0.13 0.08 0.05 0.03 0.02 0.01 0.00 0.00 0.00 0.00 0.00 0.00 0.00 0.00 0.00 0.00 0.00 0.00 0.00 0.00 0.00 0.00 0.00 0.00 0.00 0.00 0.00 0.00 0.00 0.00 0.00 0.00 0.00 0.00 0.00 0.00 0.00
0.26 0.28 0.29 0.25 0.19 0.15 0.11 0.08 0.05 0.03 0.02 0.01 0.01 0.00 0.00 0.00 0.00 0.00 0.00 0.00 0.00 0.00 0.00 0.00 0.00 0.00 0.00 0.00 0.00 0.00 0.00 0.00 0.00 0.00 0.00 0.00 0.00 0.00 0.00 0.00 0.00 0.00 0.00
0.24 0.27 0.28 0.25 0.19 0.13 0.09 0.06 0.05 0.02 0.01 0.01 0.01 0.00 0.00 0.00 0.00 0.00 0.00 0.00 0.00 0.00 0.00 0.00 0.00 0.00 0.00 0.00 0.00 0.00 0.00 0.00 0.00 0.00 0.00 0.00 0.00 0.00 0.00 0.00 0.00 0.00 0.00
0.20 0.23 0.25 0.24 0.17 0.11 0.07 0.05 0.04 0.02 0.01 0.00 0.00 0.00 0.00 0.00 0.00 0.00 0.00 0.00 0.00 0.00 0.00 0.00 0.00 0.00 0.00 0.00 0.00 0.00 0.00 0.00 0.00 0.00 0.00 0.00 0.00 0.00 0.00 0.00 0.00 0.00 0.00
MSLP
1009.00 1009.24 1009.53 1009.84 1010.11 1010.29 1010.31 1010.14 1009.74 1009.12 1008.28 1007.25 1006.10 1004.90 1003.74 1002.69 1001.83 1001.22 1000.90 1000.87 1001.11 1001.58 1002.22 1002.96 1003.74 1004.50 1005.21 1005.85 1006.41 1006.92 1007.38 1007.80 1008.19 1008.55 1008.87 1009.14 1009.32 1009.43 1009.45 1009.40 1009.29 1009.16 1009.04
1008.58 1008.83 1009.15 1009.51 1009.84 1010.09 1010.19 1010.09 1009.76 1009.18 1008.37 1007.37 1006.22 1005.02 1003.86 1002.81 1001.95 1001.34 1001.01 1000.97 1001.20 1001.63 1002.23 1002.91 1003.62 1004.32 1004.99 1005.60 1006.17 1006.70 1007.22 1007.73 1008.23 1008.70 1009.14 1009.50 1009.77 1009.93 1009.98 1009.92 1009.78 1009.58 1009.37
1008.09 1008.32 1008.66 1009.05 1009.44 1009.76 1009.95 1009.95 1009.72 1009.25 1008.54 1007.63 1006.57 1005.45 1004.35 1003.36 1002.55 1001.97 1001.65 1001.60 1001.79 1002.17 1002.69 1003.28 1003.90 1004.51 1005.09 1005.65 1006.18 1006.71 1007.25 1007.81 1008.38 1008.95 1009.47 1009.92 1010.26 1010.48 1010.55 1010.50 1010.33 1010.10 1009.82
1007.55 1007.75 1008.07 1008.48 1008.92 1009.31 1009.59 1009.71 1009.62 1009.30 1008.76 1008.01 1007.11 1006.14 1005.18 1004.29 1003.57 1003.04 1002.74 1002.68 1002.83 1003.14 1003.56 1004.04 1004.54 1005.04 1005.52 1005.99 1006.46 1006.95 1007.48 1008.05 1008.65 1009.26 1009.83 1010.34 1010.73 1010.99 1011.10 1011.06 1010.89 1010.63 1010.30
1007.02 1007.16 1007.46 1007.86 1008.31 1008.76 1009.14 1009.39 1009.46 1009.33 1008.99 1008.46 1007.78 1007.01 1006.22 1005.48 1004.86 1004.41 1004.14 1004.06 1004.16 1004.38 1004.70 1005.07 1005.45 1005.83 1006.20 1006.57 1006.97 1007.40 1007.88 1008.42 1009.01 1009.61 1010.19 1010.71 1011.13 1011.41 1011.55 1011.53 1011.37 1011.09 1010.75
1006.56 1006.63 1006.86 1007.22 1007.67 1008.15 1008.60 1008.97 1009.21 1009.28 1009.16 1008.87 1008.43 1007.88 1007.30 1006.73 1006.24 1005.86 1005.62 1005.53 1005.58 1005.73 1005.95 1006.22 1006.49 1006.77 1007.04 1007.32 1007.63 1007.98 1008.39 1008.87 1009.40 1009.95 1010.50 1010.99 1011.40 1011.68 1011.83 1011.83 1011.69 1011.44 1011.09
1006.23 1006.20 1006.34 1006.63 1007.03 1007.51 1008.00 1008.46 1008.84 1009.09 1009.19 1009.13 1008.93 1008.62 1008.24 1007.84 1007.47 1007.17 1006.97 1006.88 1006.89 1006.99 1007.14 1007.32 1007.52 1007.71 1007.91 1008.11 1008.35 1008.63 1008.96 1009.35 1009.79 1010.27 1010.74 1011.17 1011.53 1011.80 1011.94 1011.95 1011.84 1011.63 1011.32
1006.05 1005.91 1005.93 1006.11 1006.43 1006.86 1007.35 1007.86 1008.34 1008.73 1009.01 1009.16 1009.17 1009.07 1008.88 1008.64 1008.39 1008.17 1008.02 1007.94 1007.93 1008.00 1008.11 1008.25 1008.40 1008.56 1008.71 1008.88 1009.06 1009.27 1009.53 1009.83 1010.17 1010.54 1010.91 1011.26 1011.56 1011.78 1011.91 1011.93 1011.85 1011.68 1011.42
1005.98 1005.71 1005.61 1005.66 1005.86 1006.21 1006.66 1007.17 1007.70 1008.19 1008.61 1008.92 1009.10 1009.18 1009.15 1009.05 1008.92 1008.78 1008.68 1008.62 1008.63 1008.69 1008.80 1008.93 1009.09 1009.24 1009.39 1009.55 1009.71 1009.88 1010.07 1010.29 1010.54 1010.80 1011.07 1011.32 1011.54 1011.70 1011.80 1011.83 1011.78 1011.66 1011.47
1005.96 1005.58 1005.34 1005.25 1005.33 1005.57 1005.94 1006.42 1006.95 1007.50 1008.00 1008.43 1008.75 1008.97 1009.07 1009.10 1009.07 1009.02 1008.97 1008.97 1009.00 1009.09 1009.22 1009.38 1009.57 1009.75 1009.93 1010.11 1010.27 1010.42 1010.58 1010.74 1010.90 1011.08 1011.24 1011.40 1011.54 1011.65 1011.72 1011.75 1011.73 1011.65 1011.52
1005.91 1005.43 1005.06 1004.84 1004.79 1004.92 1005.21 1005.63 1006.14 1006.71 1007.27 1007.78 1008.20 1008.53 1008.75 1008.88 1008.95 1008.98 1009.00 1009.05 1009.14 1009.27 1009.44 1009.65 1009.89 1010.12 1010.35 1010.56 1010.74 1010.91 1011.05 1011.17 1011.28 1011.38 1011.48 1011.57 1011.64 1011.70 1011.74 1011.76 1011.75 1011.71 1011.62
1005.75 1005.18 1004.72 1004.39 1004.23 1004.26 1004.47 1004.84 1005.32 1005.89 1006.48 1007.05 1007.55 1007.97 1008.29 1008.52 1008.68 1008.80 1008.89 1009.01 1009.15 1009.33 1009.56 1009.82 1010.10 1010.39 1010.67 1010.92 1011.14 1011.33 1011.47 1011.59 1011.67 1011.74 1011.79 1011.83 1011.86 1011.88 1011.90 1011.91 1011.90 1011.87 1011.82
1005.43 1004.80 1004.27 1003.86 1003.63 1003.59 1003.74 1004.07 1004.54 1005.11 1005.72 1006.34 1006.91 1007.40 1007.81 1008.14 1008.39 1008.59 1008.76 1008.94 1009.14 1009.37 1009.64 1009.95 1010.27 1010.60 1010.91 1011.21 1011.46 1011.67 1011.84 1011.97 1012.05 1012.11 1012.15 1012.17 1012.18 1012.19 1012.19 1012.19 1012.18 1012.16 1012.11
1004.92 1004.26 1003.69 1003.26 1002.99 1002.91 1003.04 1003.35 1003.82 1004.40 1005.04 1005.70 1006.33 1006.90 1007.40 1007.81 1008.15 1008.43 1008.68 1008.92 1009.17 1009.44 1009.74 1010.07 1010.41 1010.76 1011.09 1011.41 1011.69 1011.93 1012.12 1012.28 1012.39 1012.47 1012.53 1012.56 1012.58 1012.58 1012.58 1012.57 1012.55 1012.52 1012.47
1004.24 1003.58 1003.01 1002.57 1002.31 1002.24 1002.37 1002.69 1003.16 1003.77 1004.44 1005.15 1005.84 1006.48 1007.06 1007.55 1007.97 1008.33 1008.65 1008.94 1009.23 1009.53 1009.84 1010.17 1010.51 1010.86 1011.19 1011.51 1011.80 1012.07 1012.29 1012.48 1012.64 1012.76 1012.85 1012.92 1012.97 1012.99 1013.00 1012.99 1012.96 1012.92 1012.85
1003.45 1002.81 1002.27 1001.86 1001.62 1001.58 1001.73 1002.07 1002.58 1003.20 1003.91 1004.66 1005.40 1006.11 1006.75 1007.32 1007.82 1008.25 1008.63 1008.97 1009.29 1009.60 1009.91 1010.22 1010.55 1010.87 1011.18 1011.49 1011.79 1012.06 1012.31 1012.54 1012.75 1012.93 1013.08 1013.20 1013.29 1013.35 1013.38 1013.38 1013.35 1013.29 1013.20
1002.62 1002.01 1001.51 1001.15 1000.95 1000.95 1001.14 1001.50 1002.02 1002.67 1003.41 1004.18 1004.97 1005.72 1006.42 1007.05 1007.62 1008.11 1008.54 1008.92 1009.26 1009.58 1009.89 1010.18 1010.47 1010.76 1011.05 1011.34 1011.62 1011.90 1012.18 1012.45 1012.70 1012.94 1013.16 1013.34 1013.49 1013.60 1013.67 1013.69 1013.67 1013.61 1013.52
1001.82 1001.26 1000.81 1000.49 1000.34 1000.37 1000.58 1000.96 1001.49 1002.14 1002.88 1003.67 1004.47 1005.26 1006.00 1006.69 1007.30 1007.85 1008.33 1008.74 1009.11 1009.44 1009.73 1010.01 1010.27 1010.53 1010.78 1011.05 1011.32 1011.61 1011.90 1012.20 1012.51 1012.80 1013.08 1013.33 1013.54 1013.71 1013.83 1013.89 1013.90 1013.86 1013.77
1001.12 1000.61 1000.21 999.93 999.81 999.86 1000.07 1000.44 1000.96 1001.60 1002.32 1003.10 1003.91 1004.71 1005.48 1006.19 1006.85 1007.44 1007.96 1008.41 1008.80 1009.14 1009.43 1009.69 1009.93 1010.17 1010.40 1010.64 1010.91 1011.19 1011.50 1011.83 1012.17 1012.52 1012.86 1013.17 1013.45 1013.68 1013.85 1013.97 1014.02 1014.01 1013.95
1000.56 1000.09 999.72 999.47 999.37 999.41 999.61 999.96 1000.44 1001.04 1001.74 1002.49 1003.28 1004.07 1004.85 1005.59 1006.28 1006.90 1007.45 1007.94 1008.35 1008.70 1009.00 1009.26 1009.49 1009.70 1009.92 1010.15 1010.40 1010.68 1011.00 1011.35 1011.72 1012.11 1012.50 1012.87 1013.21 1013.50 1013.74 1013.92 1014.03 1014.08 1014.06
1000.13 999.70 999.36 999.13 999.02 999.04 999.21 999.51 999.94 1000.49 1001.14 1001.85 1002.62 1003.40 1004.17 1004.92 1005.63 1006.27 1006.85 1007.36 1007.80 1008.16 1008.47 1008.73 1008.95 1009.16 1009.36 1009.58 1009.82 1010.10 1010.42 1010.78 1011.17 1011.59 1012.01 1012.43 1012.83 1013.19 1013.50 1013.75 1013.93 1014.05 1014.10
999.81 999.42 999.10 998.86 998.73 998.72 998.84 999.09 999.47 999.96 1000.56 1001.23 1001.96 1002.72 1003.49 1004.24 1004.95 1005.61 1006.21 1006.73 1007.18 1007.55 1007.87 1008.13 1008.35 1008.55 1008.74 1008.95 1009.18 1009.45 1009.76 1010.12 1010.53 1010.96 1011.42 1011.87 1012.32 1012.74 1013.12 1013.44 1013.71 1013.91 1014.05
999.56 999.20 998.88 998.63 998.47 998.42 998.49 998.69 999.01 999.46 1000.01 1000.64 1001.34 1002.08 1002.83 1003.58 1004.29 1004.95 1005.55 1006.07 1006.52 1006.90 1007.21 1007.46 1007.67 1007.86 1008.05 1008.24 1008.46 1008.72 1009.03 1009.38 1009.79 1010.23 1010.70 1011.19 1011.68 1012.16 1012.60 1013.01 1013.36 1013.65 1013.87
999.30 998.96 998.64 998.37 998.19 998.10 998.13 998.28 998.56 998.96 999.48 1000.08 1000.76 1001.48 1002.21 1002.94 1003.64 1004.29 1004.88 1005.39 1005.83 1006.19 1006.49 1006.73 1006.93 1007.10 1007.27 1007.46 1007.66 1007.91 1008.21 1008.56 1008.96 1009.40 1009.89 1010.40 1010.93 1011.45 1011.96 1012.44 1012.87 1013.25 1013.57
998.98 998.65 998.32 998.04 997.82 997.71 997.70 997.82 998.08 998.45 998.94 999.53 1000.19 1000.89 1001.61 1002.31 1002.99 1003.62 1004.18 1004.66 1005.07 1005.41 1005.69 1005.91 1006.09 1006.26 1006.42 1006.59 1006.79 1007.03 1007.32 1007.67 1008.07 1008.51 1009.01 1009.55 1010.10 1010.67 1011.23 1011.77 1012.28 1012.74 1013.14
998.54 998.21 997.88 997.59 997.35 997.22 997.19 997.30 997.53 997.90 998.37 998.95 999.59 1000.27 1000.97 1001.65 1002.30 1002.89 1003.41 1003.87 1004.24 1004.55 1004.81 1005.01 1005.18 1005.34 1005.50 1005.67 1005.88 1006.12 1006.41 1006.76 1007.16 1007.62 1008.13 1008.67 1009.26 1009.86 1010.46 1011.05 1011.62 1012.15 1012.62
Thickness
5697 5692 5687 5682 5678 5674 5671 5669 5669 5669 5671 5673 5677 5679 5682 5682 5682 5681 5680 5681 5680 5679 5679 5678 5676 5675 5674 5674 5674 5674 5673 5672 5666 5665 5668 5671 5673 5675 5677 5681 5683 5685 5686
5692 5686 5680 5675 5671 5667 5663 5661 5659 5659 5661 5663 5666 5668 5670 5671 5671 5670 5669 5669 5669 5668 5666 5665 5664 5664 5663 5663 5663 5663 5663 5663 5660 5656 5657 5659 5661 5665 5667 5670 5673 5675 5676
5686 5680 5673 5668 5664 5659 5656 5653 5651 5650 5651 5653 5656 5657 5658 5659 5659 5659 5658 5658 5656 5655 5654 5654 5653 5653 5651 5651 5652 5652 5653 5653 5652 5650 5647 5648 5651 5654 5656 5659 5662 5664 5667
5680 5674 5668 5663 5658 5653 5649 5646 5643 5642 5642 5644 5645 5645 5646 5647 5647 5646 5645 5643 5642 5642 5642 5642 5642 5642 5641 5642 5643 5643 5643 5642 5641 5640 5638 5639 5641 5643 5645 5645 5647 5651 5653
5675 5668 5663 5658 5653 5648 5643 5639 5636 5634 5634 5634 5635 5635 5635 5635 5634 5634 5632 5631 5630 5629 5629 5629 5629 5631 5632 5633 5633 5632 5633 5632 5630 5629 5628 5629 5630 5631 5632 5633 5634 5636 5640
5669 5664 5659 5653 5647 5642 5637 5633 5629 5627 5626 5625 5625 5625 5624 5624 5624 5624 5622 5620 5618 5617 5616 5616 5618 5619 5621 5622 5623 5625 5625 5624 5622 5621 5620 5620 5620 5621 5622 5624 5622 5623 5623
5663 5659 5654 5648 5642 5637 5633 5628 5624 5620 5618 5617 5616 5615 5613 5612 5613 5613 5613 5611 5609 5608 5607 5608 5610 5610 5611 5612 5614 5615 5615 5617 5618 5616 5614 5613 5613 5614 5614 5614 5613 5612 5611
5655 5653 5649 5644 5638 5633 5628 5623 5619 5615 5612 5610 5609 5607 5606 5605 5605 5605 5604 5603 5601 5599 5599 5600 5599 5600 5603 5604 5605 5605 5606 5607 5609 5610 5609 5608 5609 5608 5607 5606 5604 5603 5603
5646 5646 5645 5640 5635 5629 5624 5620 5616 5611 5608 5605 5603 5601 5599 5598 5599 5598 5598 5595 5593 5591 5592 5592 5593 5594 5596 5598 5599 5598 5599 5600 5603 5605 5605 5604 5604 5604 5602 5599 5596 5592 5589
5633 5636 5638 5636 5632 5627 5623 5618 5614 5610 5606 5602 5599 5597 5595 5593 5594 5594 5593 5590 5586 5584 5584 5585 5588 5589 5591 5593 5593 5593 5592 5592 5595 5597 5597 5597 5596 5595 5594 5590 5587 5582 5578
5618 5624 5627 5628 5627 5625 5620 5616 5612 5608 5603 5599 5596 5593 5591 5590 5589 5590 5589 5587 5585 5582 5581 5580 5582 5585 5587 5588 5589 5589 5589 5588 5589 5589 5587 5587 5587 5586 5584 5582 5579 5575 5570
5602 5609 5615 5619 5620 5620 5616 5612 5609 5605 5600 5596 5592 5588 5587 5586 5587 5587 5587 5586 5585 5582 5580 5579 5580 5582 5584 5584 5585 5586 5586 5586 5584 5582 5580 5578 5577 5576 5575 5574 5572 5568 5565
5585 5595 5603 5609 5613 5613 5611 5609 5605 5602 5599 5594 5591 5587 5583 5583 5583 5585 5585 5585 5584 5581 5580 5580 5580 5580 5581 5581 5582 5582 5582 5580 5577 5575 5572 5570 5569 5568 5568 5566 5564 5561 5559
5570 5580 5590 5598 5603 5607 5607 5606 5603 5601 5598 5595 5591 5587 5583 5580 5579 5580 5581 5581 5581 5579 5577 5577 5577 5577 5577 5578 5577 5577 5576 5574 5572 5569 5566 5565 5564 5562 5560 5557 5553 5549 5546
5554 5566 5577 5587 5594 5600 5602 5603 5602 5603 5602 5598 5594 5591 5585 5581 5581 5582 5581 5579 5578 5577 5573 5571 5571 5572 5572 5571 5571 5571 5570 5569 5567 5564 5562 5560 5558 5555 5552 5549 5545 5540 5535
5540 5553 5565 5576 5586 5592 5596 5595 5596 5599 5598 5596 5595 5592 5590 5588 5584 5580 5580 5579 5577 5575 5572 5569 5569 5569 5568 5568 5567 5566 5564 5563 5562 5560 5558 5555 5551 5548 5545 5542 5538 5533 5528
5530 5543 5555 5568 5578 5586 5590 5591 5589 5588 5590 5590 5589 5589 5589 5586 5582 5579 5577 5576 5574 5572 5569 5568 5567 5567 5566 5565 5564 5563 5561 5560 5558 5556 5553 5550 5546 5543 5539 5536 5532 5527 5522
5524 5536 5548 5561 5571 5580 5586 5589 5589 5588 5585 5582 5583 5584 5584 5582 5580 5577 5574 5571 5567 5567 5568 5567 5566 5566 5565 5564 5563 5561 5559 5556 5554 5551 5548 5545 5542 5538 5535 5530 5525 5521 5516
5519 5531 5542 5555 5566 5576 5582 5585 5586 5587 5586 5581 5576 5576 5577 5577 5575 5573 5571 5571 5568 5566 5566 5566 5566 5565 5565 5564 5562 5559 5557 5553 5551 5547 5544 5541 5537 5534 5529 5525 5520 5518 5512
5517 5528 5539 5549 5560 5571 5578 5582 5584 5584 5583 5581 5579 5575 5571 5569 5567 5566 5567 5569 5569 5568 5567 5566 5566 5565 5563 5562 5560 5557 5554 5551 5547 5544 5541 5537 5533 5529 5525 5521 5516 5511 5506
5515 5525 5537 5547 5557 5567 5576 5580 5584 5584 5583 5582 5581 5579 5576 5577 5575 5572 5569 5569 5570 5569 5568 5567 5566 5564 5562 5560 5558 5555 5552 5549 5546 5542 5538 5534 5530 5525 5521 5516 5512 5507 5502
5514 5524 5535 5545 5556 5566 5573 5579 5582 5584 5584 5583 5580 5575 5571 5577 5576 5574 5572 5571 5570 5570 5569 5567 5566 5564 5563 5560 5557 5554 5551 5547 5544 5540 5536 5531 5527 5522 5518 5513 5508 5503 5498
5516 5525 5535 5545 5554 5563 5570 5577 5582 5584 5584 5583 5581 5577 5571 5573 5574 5574 5573 5572 5570 5569 5568 5567 5565 5564 5562 5560 5558 5556 5552 5549 5546 5541 5535 5530 5525 5520 5515 5510 5505 5499 5494
5518 5526 5535 5544 5553 5562 5570 5577 5582 5584 5585 5584 5582 5579 5576 5575 5576 5575 5574 5572 5570 5569 5568 5566 5565 5564 5562 5559 5557 5555 5554 5551 5547 5542 5537 5531 5524 5518 5512 5506 5501 5497 5490
5518 5527 5536 5545 5555 5563 5571 5577 5582 5586 5586 5586 5584 5582 5579 5577 5576 5576 5574 5573 5571 5569 5567 5566 5565 5563 5562 5559 5557 5555 5553 5550 5545 5541 5535 5529 5523 5516 5510 5504 5498 5492 5486
5520 5530 5538 5547 5556 5565 5572 5578 5583 5587 5589 5588 5587 5585 5582 5580 5579 5577 5575 5573 5571 5569 5568 5566 5565 5563 5562 5560 5558 5556 5552 5548 5543 5539 5534 5527 5521 5514 5508 5501 5495 5489 5483